FW5619 Weather Reports


Display with metric or nautical units.
time (UTC)temp
F
wind
direction
speed
MPH
gust
MPH
rain 1hr
in
rain 24hr
in
rain mn
in
humidity
%
barometer
mb
20260508094603 48 320 2.0 6.0 0.00 0.01 0.00 78 1013.4
20260508094041 48 320 2.0 5.0 0.00 0.01 0.00 78 1013.6
20260508093539 48 320 2.0 8.0 0.00 0.01 0.00 78 1013.4
20260508093037 48 320 3.0 9.0 0.00 0.01 0.00 78 1013.3
20260508092537 48 320 3.0 9.0 0.00 0.01 0.00 78 1013.4
20260508092035 48 320 2.0 6.0 0.00 0.01 0.00 78 1013.3
20260508091540 48 320 3.0 10.0 0.00 0.01 0.00 79 1013.2
20260508091035 48 320 2.0 10.0 0.00 0.01 0.00 79 1013.2
20260508090534 47 320 2.0 8.0 0.00 0.01 0.00 79 1013.1
20260508090033 47 320 2.0 10.0 0.00 0.01 0.00 78 1013.1
20260508085533 47 320 4.0 11.0 0.00 0.01 0.00 78 1012.9
20260508085031 47 320 4.0 12.0 0.00 0.01 0.00 78 1012.8
20260508084531 48 320 5.0 12.0 0.00 0.01 0.00 77 1012.7
20260508084031 48 320 4.0 11.0 0.00 0.01 0.00 77 1012.7
20260508083529 48 320 4.0 13.0 0.00 0.01 0.00 76 1012.5
20260508083029 48 320 7.0 13.0 0.00 0.01 0.00 75 1012.6
20260508082527 48 320 7.0 13.0 0.00 0.01 0.00 75 1012.5
20260508082027 48 320 4.0 12.0 0.00 0.01 0.00 74 1012.5
20260508081554 48 320 5.0 12.0 0.00 0.01 0.00 73 1012.4
20260508081025 48 320 3.0 13.0 0.00 0.01 0.00 72 1012.3
20260508080525 49 320 6.0 13.0 0.00 0.01 0.00 72 1012.4
20260508080125 49 320 4.0 10.0 0.00 0.03 0.00 71 1012.3
20260508075522 49 320 4.0 14.0 0.00 0.03 0.00 71 1012.2
20260508075021 49 320 4.0 14.0 0.00 0.03 0.00 70 1012.2
20260508074521 49 317 6.0 13.0 0.00 0.03 0.00 69 1012.2
20260508074020 49 317 4.0 16.0 0.00 0.03 0.00 69 1012.3
20260508073521 50 317 5.0 16.0 0.00 0.03 0.00 68 1012.3
20260508073023 50 310 6.0 14.0 0.00 0.03 0.00 67 1012.4
20260508072519 50 310 6.0 16.0 0.00 0.03 0.00 67 1012.3
20260508072019 50 306 9.0 16.0 0.00 0.03 0.00 66 1012.3
20260508071535 50 253 6.0 12.0 0.00 0.03 0.00 67 1012.4
20260508071018 50 252 5.0 12.0 0.00 0.03 0.00 67 1012.5
20260508070519 50 233 4.0 8.0 0.00 0.03 0.00 70 1012.4
20260508070015 50 233 2.0 8.0 0.00 0.15 0.00 75 1012.4
20260508065515 49 233 4.0 8.0 0.00 0.15 0.00 80 1012.6
20260508065012 49 233 3.0 7.0 0.00 0.15 0.00 84 1012.5
20260508064512 48 233 3.0 10.0 0.00 0.15 0.00 87 1012.6
20260508064013 48 234 3.0 8.0 0.00 0.15 0.00 89 1012.6
20260508063514 48 233 3.0 8.0 0.00 0.15 0.00 90 1012.6
20260508063018 48 233 1.0 4.0 0.00 0.15 0.00 91 1012.2
20260508062512 47 233 2.0 3.0 0.00 0.15 0.00 90 1011.7
20260508062007 47 360 2.0 3.0 0.00 0.15 0.00 90 1011.3
20260508061507 47 360 0.0 2.0 0.00 0.15 0.00 90 1011.2
20260508061006 47 360 0.0 0.0 0.00 0.15 0.00 90 1011.3
20260508060506 48 360 0.0 2.0 0.00 0.15 0.00 90 1011.4
20260508060005 48 360 0.0 2.0 0.00 0.15 0.00 90 1011.4
20260508055505 47 360 0.0 1.0 0.00 0.15 0.00 90 1011.2
20260508055005 48 360 0.0 2.0 0.00 0.15 0.00 90 1011.3
20260508054507 47 360 0.0 2.0 0.00 0.15 0.00 89 1011.2
20260508054002 48 360 0.0 1.0 0.00 0.15 0.00 89 1011.1
20260508053502 48 360 0.0 1.0 0.00 0.15 0.00 89 1010.9
20260508053005 48 360 0.0 0.0 0.00 0.15 0.00 89 1011.0
20260508052505 48 360 0.0 0.0 0.00 0.15 0.00 89 1011.2
20260508052002 48 232 0.0 0.0 0.00 0.15 0.00 88 1011.1
20260508051501 48 233 0.0 3.0 0.00 0.15 0.00 88 1011.1
20260508051100 48 233 0.0 3.0 0.00 0.15 0.00 88 1011.1
20260508050559 48 233 0.0 4.0 0.00 0.15 0.00 88 1011.0
20260508050058 49 233 2.0 4.0 0.00 0.17 0.00 88 1011.0
20260508045557 49 233 1.0 4.0 0.00 0.17 0.00 88 1010.9
20260508045056 49 233 0.0 0.0 0.00 0.17 0.00 87 1010.9
20260508044555 49 233 0.0 0.0 0.00 0.17 0.00 87 1010.9
20260508044056 49 233 0.0 0.0 0.00 0.17 0.00 85 1010.8
20260508043552 50 233 0.0 0.0 0.00 0.17 0.00 85 1010.7
20260508043054 50 360 0.0 1.0 0.00 0.17 0.00 85 1010.7
20260508042552 50 360 0.0 1.0 0.00 0.17 0.00 85 1010.7
20260508042051 50 360 0.0 3.0 0.00 0.17 0.00 84 1010.8
20260508041550 51 360 0.0 4.0 0.00 0.17 0.00 84 1010.9
20260508041049 51 360 2.0 5.0 0.00 0.17 0.00 83 1010.9
20260508040549 51 360 3.0 6.0 0.00 0.17 0.00 83 1011.0
20260508040054 51 360 2.0 5.0 0.00 0.17 0.17 83 1011.0
20260508035547 51 360 3.0 6.0 0.00 0.17 0.17 83 1010.9
20260508035047 51 360 4.0 9.0 0.00 0.17 0.17 83 1011.0
20260508034547 52 360 5.0 9.0 0.00 0.17 0.17 82 1011.0
20260508034046 52 360 4.0 8.0 0.00 0.17 0.17 82 1011.0
20260508033545 52 360 3.0 6.0 0.00 0.17 0.17 82 1011.0
20260508033046 52 360 3.0 8.0 0.00 0.17 0.17 82 1011.1
20260508032545 52 360 4.0 8.0 0.00 0.17 0.17 82 1011.1
20260508032045 51 360 3.0 6.0 0.00 0.17 0.17 82 1011.1
20260508031545 52 360 4.0 6.0 0.00 0.17 0.17 83 1011.1
20260508031045 51 360 4.0 6.0 0.00 0.17 0.17 83 1011.0
20260508030545 51 360 3.0 5.0 0.00 0.17 0.17 83 1011.0
20260508030045 51 360 2.0 5.0 0.00 0.17 0.17 83 1011.0
20260508025546 51 360 2.0 6.0 0.00 0.17 0.17 83 1011.1
20260508025044 51 360 4.0 6.0 0.00 0.17 0.17 83 1011.1
20260508024550 51 360 3.0 6.0 0.00 0.17 0.17 83 1011.1
20260508024045 51 360 4.0 8.0 0.00 0.17 0.17 83 1011.1
20260508023544 51 360 3.0 8.0 0.00 0.17 0.17 83 1011.1
20260508023043 51 360 2.0 8.0 0.00 0.17 0.17 83 1011.2
20260508022543 52 360 4.0 8.0 0.00 0.17 0.17 83 1011.1
20260508022043 52 360 5.0 9.0 0.00 0.17 0.17 83 1011.2
20260508021544 52 360 4.0 10.0 0.00 0.17 0.17 83 1011.2
20260508021042 52 360 5.0 9.0 0.00 0.17 0.17 83 1011.2
20260508020544 52 360 2.0 10.0 0.00 0.17 0.17 82 1011.1
20260508020043 52 360 3.0 11.0 0.00 0.17 0.17 82 1011.2
20260508015542 52 360 7.0 11.0 0.00 0.17 0.17 82 1011.1
20260508015042 52 360 5.0 10.0 0.00 0.17 0.17 82 1011.1
20260508014544 52 360 5.0 11.0 0.00 0.17 0.17 83 1011.1
20260508014041 52 360 5.0 11.0 0.00 0.17 0.17 84 1011.1
20260508013540 52 360 5.0 10.0 0.00 0.17 0.17 84 1011.0
20260508013045 52 232 6.0 10.0 0.00 0.17 0.17 85 1011.0
20260508012539 52 232 5.0 8.0 0.00 0.17 0.17 85 1011.0
20260508012043 52 232 2.0 6.0 0.00 0.17 0.17 85 1011.0
20260508011540 52 360 3.0 8.0 0.00 0.17 0.17 85 1011.1
20260508011041 52 360 3.0 9.0 0.00 0.17 0.17 84 1010.9
20260508010539 52 360 4.0 9.0 0.00 0.17 0.17 84 1010.9
20260508010039 52 360 4.0 9.0 0.00 0.17 0.17 83 1010.9
20260508005541 52 360 5.0 11.0 0.00 0.17 0.17 83 1010.9
20260508005038 52 360 6.0 12.0 0.00 0.17 0.17 83 1010.7
20260508004538 52 360 6.0 12.0 0.00 0.17 0.17 83 1010.8
20260508004038 52 360 6.0 11.0 0.00 0.17 0.17 83 1010.7
20260508003537 52 360 7.0 11.0 0.00 0.17 0.17 83 1010.5
20260508003038 52 360 5.0 11.0 0.00 0.17 0.17 83 1010.4
20260508002538 53 360 6.0 12.0 0.00 0.17 0.17 82 1010.4
20260508002038 53 360 7.0 12.0 0.00 0.17 0.17 82 1010.5
20260508001537 53 360 6.0 10.0 0.00 0.17 0.17 81 1010.5
20260508001038 53 360 5.0 13.0 0.00 0.17 0.17 81 1010.4
20260508000537 53 360 8.0 13.0 0.00 0.17 0.17 80 1010.3
20260508000039 53 360 6.0 12.0 0.00 0.17 0.17 80 1010.4
20260507235537 53 360 7.0 12.0 0.00 0.17 0.17 79 1010.4
20260507235037 54 360 5.0 16.0 0.00 0.17 0.17 78 1010.2
20260507234536 54 360 5.0 17.0 0.00 0.17 0.17 76 1010.0
20260507234035 54 237 11.0 17.0 0.00 0.17 0.17 74 1010.0
20260507233538 54 246 11.0 17.0 0.00 0.17 0.17 72 1009.9
20260507233042 55 254 8.0 14.0 0.00 0.17 0.17 71 1010.0
20260507232534 55 254 6.0 16.0 0.00 0.17 0.17 72 1010.0
20260507232037 55 254 5.0 16.0 0.00 0.17 0.17 72 1009.9
20260507231538 55 280 5.0 12.0 0.00 0.17 0.17 70 1009.7
20260507231035 55 280 7.0 16.0 0.00 0.17 0.17 69 1009.7
20260507230535 56 280 5.0 16.0 0.00 0.17 0.17 71 1009.6
20260507230039 57 294 8.0 16.0 0.00 0.17 0.17 67 1009.6
20260507225534 58 320 6.0 11.0 0.00 0.17 0.17 65 1009.5
20260507225034 60 319 4.0 9.0 0.00 0.17 0.17 59 1009.7
20260507224540 63 319 2.0 12.0 0.00 0.17 0.17 36 1009.6
20260507224033 63 319 2.0 12.0 0.00 0.17 0.17 35 1009.4
20260507223534 63 319 4.0 12.0 0.00 0.17 0.17 36 1009.3
20260507223034 63 319 5.0 12.0 0.00 0.17 0.17 35 1009.2
20260507222536 63 317 2.0 10.0 0.00 0.17 0.17 35 1009.2
20260507222032 64 316 6.0 10.0 0.00 0.17 0.17 35 1009.4
20260507221538 63 316 2.0 11.0 0.00 0.17 0.17 35 1009.3
20260507221032 64 316 4.0 15.0 0.00 0.17 0.17 35 1009.2
20260507220535 64 317 8.0 15.0 0.00 0.17 0.17 33 1009.2
20260507220036 65 319 7.0 15.0 0.00 0.17 0.17 36 1009.2
20260507215533 64 326 4.0 11.0 0.00 0.17 0.17 35 1009.2
20260507215031 62 326 3.0 13.0 0.00 0.17 0.17 46 1009.2
20260507214534 64 326 4.0 13.0 0.00 0.17 0.17 36 1009.2
20260507214031 62 329 2.0 8.0 0.00 0.17 0.17 44 1009.3
20260507213533 65 329 2.0 9.0 0.00 0.17 0.17 37 1009.3
20260507213038 63 329 2.0 10.0 0.00 0.17 0.17 41 1009.4
20260507212531 62 326 5.0 13.0 0.00 0.17 0.17 51 1009.1
20260507212031 64 321 6.0 13.0 0.00 0.17 0.17 41 1009.0
20260507211531 65 314 6.0 15.0 0.00 0.17 0.17 34 1008.9
20260507211030 65 314 9.0 15.0 0.00 0.17 0.17 35 1008.9
20260507210530 64 318 7.0 14.0 0.00 0.17 0.17 34 1008.9
20260507210030 64 319 4.0 14.0 0.00 0.17 0.17 35 1008.9
20260507205529 65 321 4.0 10.0 0.00 0.17 0.17 35 1009.0
20260507205032 64 321 4.0 12.0 0.00 0.17 0.17 35 1009.0
20260507204529 64 321 7.0 12.0 0.00 0.17 0.17 35 1009.0
20260507204029 65 323 5.0 12.0 0.00 0.17 0.17 35 1009.1
20260507203529 65 323 5.0 12.0 0.00 0.17 0.17 34 1009.1
20260507203037 65 319 2.0 12.0 0.00 0.17 0.17 36 1009.2
20260507202527 65 315 3.0 11.0 0.00 0.17 0.17 36 1009.2
20260507202028 64 315 4.0 15.0 0.00 0.17 0.17 37 1009.1
20260507201529 64 317 7.0 14.0 0.00 0.17 0.17 36 1009.3
20260507201028 64 319 3.0 10.0 0.00 0.17 0.17 35 1009.3
20260507200528 64 319 5.0 12.0 0.00 0.17 0.17 35 1009.2
20260507200027 64 319 5.0 14.0 0.00 0.17 0.17 35 1009.3
20260507195526 64 317 6.0 14.0 0.00 0.17 0.17 35 1009.2
20260507195026 64 318 6.0 12.0 0.00 0.17 0.17 35 1009.3
20260507194526 65 317 5.0 11.0 0.00 0.17 0.17 35 1009.2
20260507194025 64 316 2.0 12.0 0.00 0.17 0.17 36 1009.2
20260507193527 65 316 5.0 12.0 0.00 0.17 0.17 35 1009.4
20260507193025 64 311 7.0 13.0 0.00 0.17 0.17 36 1009.3
20260507192524 64 311 1.0 13.0 0.00 0.17 0.17 35 1009.4
20260507192024 64 311 9.0 13.0 0.00 0.17 0.17 36 1009.5
20260507191524 64 313 2.0 11.0 0.00 0.17 0.17 35 1009.7
20260507191023 64 313 5.0 17.0 0.00 0.17 0.17 37 1009.7
20260507190523 63 313 7.0 19.0 0.00 0.17 0.17 36 1009.7
20260507190023 63 313 10.0 19.0 0.00 0.17 0.17 36 1009.7
20260507185524 63 317 5.0 13.0 0.00 0.17 0.17 37 1009.7
20260507185022 63 316 8.0 16.0 0.00 0.17 0.17 36 1009.8
20260507184522 63 317 6.0 19.0 0.00 0.17 0.17 37 1009.9
20260507184022 63 318 10.0 19.0 0.00 0.17 0.17 37 1009.9
20260507183522 63 330 5.0 12.0 0.00 0.17 0.17 39 1009.9
20260507183021 64 330 7.0 13.0 0.00 0.17 0.17 38 1010.0
20260507182521 63 330 4.0 14.0 0.00 0.17 0.17 39 1010.1
20260507182022 63 331 5.0 14.0 0.00 0.17 0.17 37 1010.1
20260507181527 63 333 4.0 14.0 0.00 0.17 0.17 39 1010.4
20260507181021 64 336 6.0 16.0 0.00 0.17 0.17 39 1010.5
20260507180523 63 338 6.0 16.0 0.00 0.17 0.17 39 1010.4
20260507180024 62 310 2.0 11.0 0.00 0.20 0.17 38 1010.6
20260507175519 62 309 5.0 13.0 0.00 0.20 0.17 38 1010.7
20260507175019 62 309 5.0 15.0 0.00 0.20 0.17 37 1010.7
20260507174520 63 308 6.0 19.0 0.00 0.20 0.17 40 1010.6
20260507174018 62 331 3.0 12.0 0.00 0.20 0.17 39 1010.7
20260507173518 62 331 3.0 12.0 0.00 0.20 0.17 40 1010.7
20260507173029 62 329 7.0 14.0 0.00 0.20 0.17 41 1010.6
20260507172517 62 333 6.0 11.0 0.00 0.20 0.17 39 1010.8
20260507172017 63 332 5.0 10.0 0.00 0.20 0.17 40 1010.8
20260507171516 62 333 2.0 9.0 0.00 0.20 0.17 42 1010.7
20260507171015 62 333 5.0 13.0 0.00 0.20 0.17 42 1011.1
20260507170514 61 331 6.0 13.0 0.00 0.20 0.17 43 1011.0
20260507170016 61 329 5.0 14.0 0.00 0.20 0.17 45 1011.1
20260507165512 62 330 6.0 14.0 0.00 0.20 0.17 48 1011.1
20260507165011 61 327 4.0 11.0 0.00 0.20 0.17 49 1011.2
20260507164510 60 327 3.0 12.0 0.00 0.20 0.17 48 1011.3
20260507164011 61 327 5.0 12.0 0.00 0.20 0.17 49 1011.2
20260507163509 60 324 3.0 12.0 0.00 0.20 0.17 51 1011.4
20260507163011 61 324 6.0 13.0 0.00 0.20 0.17 51 1011.5
20260507162510 60 322 4.0 15.0 0.00 0.20 0.17 52 1011.5
20260507162009 61 322 5.0 15.0 0.00 0.20 0.17 51 1011.7
20260507161507 60 322 5.0 14.0 0.00 0.20 0.17 52 1011.8
20260507161007 60 327 5.0 13.0 0.00 0.20 0.17 55 1011.7
20260507160508 60 327 7.0 13.0 0.00 0.20 0.17 54 1011.8
20260507160006 61 331 2.0 10.0 0.00 0.20 0.17 58 1011.9
20260507155505 58 331 3.0 13.0 0.00 0.20 0.17 58 1012.0
20260507155006 58 329 5.0 9.0 0.00 0.20 0.17 58 1012.2
20260507154504 59 329 2.0 11.0 0.00 0.20 0.17 58 1012.2
20260507154004 59 329 6.0 12.0 0.00 0.20 0.17 58 1012.2
20260507153504 58 331 6.0 13.0 0.00 0.20 0.17 60 1012.3
20260507153003 59 320 5.0 17.0 0.00 0.20 0.17 61 1012.3
20260507152503 59 319 3.0 17.0 0.00 0.20 0.17 60 1012.3
20260507152003 59 323 6.0 13.0 0.00 0.20 0.17 62 1012.4
20260507151501 58 323 6.0 13.0 0.00 0.20 0.17 60 1012.4
20260507151101 58 325 2.0 10.0 0.00 0.20 0.17 65 1012.5
20260507150600 57 325 3.0 10.0 0.00 0.20 0.17 68 1012.5
20260507150100 56 325 4.0 9.0 0.00 0.20 0.17 68 1012.7
20260507145600 57 325 4.0 10.0 0.00 0.20 0.17 69 1012.8
20260507145101 57 325 3.0 11.0 0.00 0.20 0.17 68 1012.9
20260507144558 57 325 6.0 13.0 0.00 0.20 0.17 68 1012.9
20260507144101 58 321 5.0 11.0 0.00 0.20 0.17 68 1012.9
20260507143557 57 322 6.0 14.0 0.00 0.20 0.17 69 1012.5
20260507143101 56 320 5.0 17.0 0.00 0.20 0.17 70 1012.5
20260507142556 56 324 8.0 15.0 0.00 0.20 0.17 70 1012.3
20260507142055 56 327 6.0 15.0 0.00 0.20 0.17 70 1012.3
20260507141556 56 315 7.0 17.0 0.00 0.20 0.17 70 1012.3
20260507141055 57 313 4.0 17.0 0.00 0.20 0.17 71 1012.3
20260507140555 57 319 2.0 12.0 0.00 0.20 0.17 74 1012.2
20260507140056 56 319 7.0 13.0 0.00 0.20 0.17 73 1012.3
20260507135553 56 322 5.0 13.0 0.00 0.20 0.17 74 1012.3
20260507135053 56 325 5.0 12.0 0.00 0.20 0.17 75 1012.3
20260507134554 55 326 4.0 9.0 0.00 0.20 0.17 76 1012.2
20260507134051 55 326 3.0 9.0 0.00 0.20 0.17 78 1012.3
20260507133552 55 326 3.0 13.0 0.00 0.20 0.17 78 1012.2
20260507133106 54 325 5.0 15.0 0.00 0.20 0.17 78 1012.1
20260507132550 54 320 5.0 12.0 0.00 0.20 0.17 81 1012.2
20260507132050 54 313 5.0 12.0 0.00 0.20 0.17 82 1012.2
20260507131554 53 313 3.0 10.0 0.00 0.20 0.17 82 1012.3
20260507131053 53 312 5.0 11.0 0.00 0.20 0.17 83 1012.5
20260507130549 53 312 5.0 11.0 0.00 0.20 0.17 83 1012.5
20260507130105 52 313 3.0 9.0 0.00 0.20 0.17 84 1012.6
20260507125549 52 313 4.0 11.0 0.00 0.20 0.17 84 1012.6
20260507125048 52 313 3.0 11.0 0.00 0.20 0.17 85 1012.6
20260507124548 52 313 3.0 10.0 0.00 0.20 0.17 85 1012.5
20260507124048 51 312 3.0 9.0 0.00 0.20 0.17 85 1012.4
20260507123548 51 312 4.0 9.0 0.00 0.20 0.17 86 1012.4
20260507123051 51 312 3.0 6.0 0.00 0.20 0.17 86 1012.4
20260507122547 51 312 2.0 11.0 0.00 0.20 0.17 86 1012.3
20260507122047 51 312 4.0 11.0 0.00 0.20 0.17 86 1012.3
20260507121558 51 312 3.0 9.0 0.00 0.20 0.17 87 1012.3
20260507121046 51 312 3.0 9.0 0.00 0.20 0.17 88 1012.1
20260507120544 51 312 3.0 9.0 0.00 0.20 0.17 88 1012.1
20260507120054 51 312 2.0 8.0 0.00 0.20 0.17 88 1012.2
20260507115544 51 312 3.0 5.0 0.00 0.20 0.17 89 1012.1
20260507115043 51 312 1.0 8.0 0.00 0.20 0.17 89 1012.1
20260507114624 51 312 4.0 8.0 0.00 0.20 0.17 89 1012.1
20260507114042 51 312 3.0 8.0 0.00 0.20 0.17 90 1012.0
20260507113545 51 312 1.0 10.0 0.00 0.20 0.17 90 1011.9
20260507113041 51 312 3.0 10.0 0.00 0.20 0.17 91 1011.8
20260507112541 50 312 2.0 9.0 0.00 0.20 0.17 91 1011.8
20260507112041 50 311 2.0 8.0 0.00 0.20 0.17 91 1011.6
20260507111540 50 311 1.0 8.0 0.00 0.20 0.17 92 1011.7
20260507111040 50 311 2.0 9.0 0.00 0.20 0.17 92 1011.9
20260507110540 50 311 4.0 9.0 0.01 0.20 0.17 93 1012.0
20260507110039 50 311 2.0 6.0 0.01 0.20 0.17 93 1011.7
20260507105537 50 311 1.0 6.0 0.01 0.20 0.17 93 1011.7
20260507105039 50 311 2.0 6.0 0.01 0.20 0.17 93 1011.7
20260507104537 50 311 2.0 4.0 0.01 0.20 0.17 93 1011.5
20260507104037 50 311 0.0 4.0 0.01 0.20 0.17 93 1011.5
20260507103536 50 311 1.0 5.0 0.01 0.20 0.17 93 1011.6
20260507103036 50 311 1.0 5.0 0.01 0.20 0.17 93 1011.5
20260507102536 50 311 2.0 8.0 0.01 0.20 0.17 93 1011.6
20260507102040 50 311 3.0 6.0 0.01 0.20 0.17 93 1011.5
20260507101537 50 311 1.0 3.0 0.01 0.20 0.17 93 1011.1
20260507101034 50 311 1.0 6.0 0.01 0.20 0.17 93 1011.1
20260507100535 50 311 1.0 8.0 0.00 0.19 0.16 93 1011.4
20260507100035 50 309 2.0 5.0 0.00 0.19 0.16 93 1011.1
20260507095533 50 309 1.0 6.0 0.00 0.19 0.16 93 1010.8
20260507095033 50 311 2.0 8.0 0.00 0.19 0.16 93 1011.0